This is the latest recevied weather packets stored in our database for station/object OH6HPS. If no packets are shown the sender has not sent any weather packets the latest 1 day(s).
| Time | Temp. | Humidity | Pressure | Rain* | Wind** | Luminosity | Snow |
|---|---|---|---|---|---|---|---|
| 1777980900 | 11.67° C | 44% | 1004.1 hPa | 0 mm | 2.24 m/s, 231° | 259 W/m² | - |
| 1777980298 | 12.22° C | 45% | 1004.1 hPa | 0 mm | 3.13 m/s, 230° | 621 W/m² | - |
| 1777979699 | 11.11° C | 49% | 1003.9 hPa | 0 mm | 2.24 m/s, 213° | 830 W/m² | - |
| 1777979097 | 10° C | 48% | 1003.9 hPa | 0 mm | 2.68 m/s, 266° | 232 W/m² | - |
| 1777978496 | 10° C | 49% | 1003.8 hPa | 0 mm | 2.68 m/s, 226° | 188 W/m² | - |
| 1777977895 | 10° C | 50% | 1003.8 hPa | 0 mm | 1.79 m/s, 251° | 230 W/m² | - |
| 1777977301 | 10° C | 52% | 1003.6 hPa | 0 mm | 1.79 m/s, 274° | 772 W/m² | - |
| 1777976695 | 10.56° C | 51% | 1003.6 hPa | 0 mm | 1.79 m/s, 202° | 179 W/m² | - |
| 1777976095 | 10° C | 56% | 1003.5 hPa | 0 mm | 1.34 m/s, 203° | 749 W/m² | - |
| 1777975495 | 10.56° C | 55% | 1003.5 hPa | 0 mm | 1.79 m/s, 233° | 139 W/m² | - |
| 1777974895 | 10° C | 58% | 1003.2 hPa | 0 mm | 1.79 m/s, 203° | 758 W/m² | - |
| 1777974294 | 10° C | 59% | 1003.3 hPa | 0 mm | 2.68 m/s, 216° | 92 W/m² | - |
| 1777973694 | 10° C | 58% | 1003.2 hPa | 0 mm | 1.34 m/s, 226° | 165 W/m² | - |
| 1777973093 | 10.56° C | 56% | 1003 hPa | 0 mm | 2.24 m/s, 262° | 303 W/m² | - |
| 1777972493 | 11.11° C | 63% | 1003 hPa | 0 mm | 1.34 m/s, 271° | 909 W/m² | - |
| 1777971893 | 10° C | 62% | 1003 hPa | 0 mm | 4.47 m/s, 221° | 714 W/m² | - |
| 1777971292 | 10° C | 64% | 1002.8 hPa | 0 mm | 2.68 m/s, 221° | 190 W/m² | - |
| 1777970693 | 10.56° C | 63% | 1002.7 hPa | 0 mm | 1.79 m/s, 212° | 246 W/m² | - |
| 1777970092 | 10° C | 61% | 1002.6 hPa | 0 mm | 3.13 m/s, 247° | 672 W/m² | - |
| 1777969491 | 10° C | 64% | 1002.5 hPa | 0 mm | 1.79 m/s, 220° | 619 W/m² | - |
| 1777968891 | 8.89° C | 64% | 1002.2 hPa | 0 mm | 2.24 m/s, 251° | 563 W/m² | - |
| 1777968291 | 9.44° C | 66% | 1002.2 hPa | 0 mm | 2.24 m/s, 265° | 144 W/m² | - |
* Rain latest hour (hover to see other rain measurements)
** Current wind speed in m/s (hover to see current wind gust speed)